Theta_e
329 328 326 326 323 319 315 314 313 310 310 310 311 311 310 310 309 308 308 307 307 307 307 306 306 306 308 308 307 308 308 308 311 312 313 315 315 315 314 313 307 304 303
330 329 326 326 324 321 317 314 313 310 310 311 311 311 311 310 309 308 307 307 306 307 307 305 305 306 305 306 306 306 307 306 307 309 310 313 313 311 309 311 307 305 303
325 329 329 327 326 323 319 315 312 311 310 311 311 311 311 310 308 307 307 306 306 305 305 305 305 305 305 305 305 306 306 306 305 306 308 311 312 311 308 309 309 306 304
323 322 325 328 327 325 322 316 313 311 311 311 311 311 310 310 309 308 307 305 305 305 304 304 304 304 304 304 304 304 305 306 306 304 304 304 305 309 309 306 306 306 303
324 322 324 326 328 327 325 320 315 313 311 311 311 311 311 311 310 308 307 305 304 304 303 303 303 302 303 303 301 301 303 304 304 304 303 303 304 303 304 307 306 304 303
324 323 321 322 323 328 327 322 317 314 312 311 311 311 311 311 310 308 307 305 304 303 303 302 302 301 301 301 301 301 302 301 301 301 301 302 302 303 302 304 303 302 300
324 324 322 322 325 328 327 324 319 315 313 311 311 312 312 311 310 308 307 305 304 303 302 301 301 301 301 301 300 300 300 300 300 300 300 300 300 300 300 299 298 297 295
319 323 322 323 325 326 326 323 320 317 313 311 311 312 312 311 310 308 307 305 304 304 303 302 302 301 300 299 299 299 299 299 299 299 299 299 297 296 294 294 294 295 294
313 313 318 323 323 324 325 323 320 318 314 312 311 311 312 311 310 308 307 306 305 304 303 302 301 299 299 298 298 298 298 298 297 295 292 292 292 292 292 292 292 292 293
314 315 315 314 315 325 326 323 320 317 314 311 311 311 311 310 310 308 307 305 304 303 302 301 300 299 298 298 297 296 295 292 291 292 291 291 291 291 291 291 291 291 291
315 316 316 315 315 315 324 322 320 319 315 312 311 310 310 309 309 307 306 305 303 302 301 299 298 297 296 295 293 292 290 291 291 291 290 290 290 290 290 290 290 290 290
313 315 315 315 314 316 319 321 319 318 314 312 311 309 308 308 307 305 305 304 303 301 299 297 295 293 292 291 291 290 290 290 290 290 290 290 289 289 289 289 289 289 289
311 313 315 315 313 314 315 316 316 315 312 310 308 306 306 306 304 304 303 302 300 297 295 294 292 291 290 289 289 289 289 290 290 289 289 289 288 288 288 288 288 288 288
308 311 314 315 314 313 314 314 315 312 306 305 304 304 304 303 303 301 299 297 295 293 292 291 289 289 288 289 288 288 289 289 289 288 288 288 288 287 287 287 288 288 288
307 310 313 315 312 312 311 310 307 304 303 303 303 302 301 301 299 296 294 293 292 291 290 289 288 288 288 288 289 288 289 289 289 288 288 287 287 287 286 287 287 287 287
307 308 312 313 311 309 307 304 302 301 300 300 298 298 298 295 293 292 291 290 289 289 288 288 288 287 287 286 286 287 289 289 288 288 288 287 287 287 287 287 287 287 287
306 309 312 313 311 308 304 301 299 298 298 296 295 294 294 293 292 290 289 289 288 288 288 288 287 287 286 285 285 286 287 288 288 288 287 287 286 286 287 287 287 287 287
307 307 308 312 311 309 305 302 299 298 296 295 294 293 292 291 290 289 289 288 288 288 287 287 286 286 286 285 285 285 286 287 287 287 286 286 286 286 286 286 287 287 287
306 306 307 309 311 308 305 302 300 298 296 294 293 292 291 290 289 289 288 288 287 287 286 286 285 285 285 284 284 284 286 286 286 286 286 286 286 286 287 287 286 287 287
305 305 306 308 308 306 304 301 299 296 294 293 292 291 289 289 288 288 287 287 287 286 285 285 285 285 284 284 283 283 285 286 286 286 286 286 286 286 286 286 286 287 287
303 304 306 307 306 304 301 300 299 297 295 292 290 289 288 288 288 287 288 287 286 285 285 284 284 284 284 283 283 284 285 285 286 286 286 286 286 286 286 286 286 286 287
301 301 303 303 303 301 300 299 296 293 290 289 288 288 287 287 286 290 288 286 285 284 284 284 284 284 283 283 284 284 285 285 285 285 285 285 285 285 286 286 285 286 285
301 300 300 300 300 298 298 296 293 289 288 287 287 286 286 286 286 290 286 284 284 284 284 284 284 284 284 284 284 284 284 284 284 284 284 285 285 285 285 285 284 284 283
300 299 299 299 295 294 295 294 289 288 287 286 285 285 285 285 285 288 285 284 284 284 284 284 284 284 284 284 284 284 284 284 284 284 284 284 284 285 284 283 282 282 282
298 297 298 297 295 293 293 289 288 287 286 285 285 285 285 285 287 286 284 284 284 284 284 284 284 285 285 285 284 284 284 284 284 284 284 284 284 283 282 282 281 281 281
296 296 296 295 294 292 291 288 287 286 286 285 285 285 285 286 285 284 283 283 283 282 282 283 283 284 283 283 283 283 283 284 283 283 283 283 282 282 281 281 280 280 279
Wind_Speed
9 8 14 17 17 18 20 20 20 20 19 17 15 14 13 11 10 9 10 9 9 9 8 9 9 7 7 7 8 8 8 7 6 7 5 4 4 3 3 3 4 3 3
7 6 14 17 19 20 21 21 22 23 21 18 16 14 13 10 11 11 10 9 9 9 9 8 8 10 9 8 7 7 7 5 4 3 5 3 5 6 4 5 6 4 2
9 9 11 16 19 20 22 25 25 25 24 20 18 13 13 11 11 11 11 10 8 9 9 9 7 8 9 8 7 6 5 5 2 2 2 1 1 8 6 6 6 6 3
6 1 3 13 18 22 24 26 27 26 25 26 24 22 19 14 11 13 11 12 10 9 10 10 8 8 8 8 7 6 5 5 5 3 3 3 3 2 2 7 7 6 5
11 9 9 18 21 23 23 24 25 26 26 27 24 25 20 17 16 14 13 11 11 9 10 11 10 10 9 8 7 6 5 6 5 2 2 2 3 2 2 2 4 6 6
17 14 18 16 23 23 24 24 27 28 27 29 26 26 24 22 21 20 18 16 14 12 11 11 10 10 9 8 8 7 6 6 7 5 4 2 2 3 3 4 7 8 10
16 13 15 18 23 26 29 28 29 29 30 31 31 28 27 27 26 25 22 18 16 14 14 13 10 8 9 8 8 8 7 7 6 6 4 4 3 3 3 5 8 7 11
8 17 17 22 23 24 26 27 31 31 31 31 29 26 23 23 22 26 24 21 18 15 15 13 12 11 9 8 8 8 7 6 6 5 4 2 2 2 2 4 7 5 10
6 7 10 24 24 25 24 31 28 27 29 30 29 27 24 22 22 24 23 22 20 17 19 17 16 14 10 9 8 7 7 6 5 2 1 1 1 2 3 5 7 7 4
6 8 9 16 19 25 27 29 29 31 29 28 31 35 36 28 23 28 27 25 24 21 20 18 17 14 12 10 9 9 7 5 3 1 0 2 3 5 6 7 8 10 12
3 5 6 12 16 20 21 25 28 27 29 30 26 24 26 32 28 26 27 24 24 24 19 19 16 14 12 10 8 6 5 4 2 1 2 4 5 6 7 8 10 11 13
4 5 6 9 12 14 14 20 19 23 25 28 28 26 27 30 29 28 27 25 25 21 20 19 16 13 12 10 7 6 4 2 1 2 3 5 5 7 8 9 11 12 14
10 7 6 8 10 12 15 17 18 21 24 26 32 31 31 31 26 30 28 25 24 22 20 19 17 14 12 9 6 4 2 1 2 3 4 6 6 8 9 10 12 14 15
12 9 8 5 9 11 14 16 18 21 24 30 31 30 29 31 29 26 27 25 25 23 20 17 15 13 10 8 5 3 2 2 3 5 6 7 8 9 11 12 14 15 16
11 10 8 6 7 10 11 12 14 18 24 28 31 33 31 32 31 28 26 23 24 22 20 18 14 11 8 6 4 2 3 4 5 6 8 9 10 13 16 13 14 16 17
9 9 9 7 8 9 12 10 12 17 22 25 27 31 32 30 29 26 25 23 23 21 19 15 13 11 7 5 4 5 3 5 7 8 9 10 12 12 13 15 16 18 20
7 7 10 9 10 13 14 18 20 21 21 25 27 28 29 28 26 26 24 24 22 20 17 14 11 9 6 5 4 4 4 7 8 10 11 12 12 13 15 16 17 18 20
8 7 8 12 13 12 14 17 19 21 23 24 24 25 26 26 26 24 23 21 20 18 15 12 10 8 6 4 3 4 5 7 9 11 12 14 15 15 15 18 20 20 23
6 8 8 12 14 16 17 20 20 19 20 22 24 26 27 27 26 24 22 20 19 16 13 11 9 6 4 3 4 4 5 7 9 11 12 13 14 15 15 18 22 23 23
4 5 5 10 14 17 19 20 21 21 23 25 25 25 26 27 25 24 22 20 16 14 12 9 7 5 4 5 4 5 5 8 10 11 12 13 14 14 15 19 21 23 23
5 4 8 12 15 18 20 20 22 21 22 24 26 26 26 26 27 25 21 17 15 12 10 7 5 5 5 5 5 5 5 7 10 12 14 14 13 15 18 21 23 25 25
6 8 9 13 16 19 21 20 20 22 27 29 30 30 29 27 28 23 18 15 13 11 8 7 6 5 5 6 5 5 7 9 11 12 13 14 16 20 23 23 24 22 25
9 11 13 14 16 19 21 21 23 31 31 30 29 29 28 27 25 21 17 15 12 10 9 7 7 6 5 4 6 7 7 8 9 12 14 18 19 20 20 19 22 23 20
11 12 14 15 15 19 20 23 29 31 31 29 28 29 29 26 21 18 15 13 12 10 9 8 6 4 5 5 5 5 7 9 12 13 15 20 22 18 16 18 18 17 17
13 16 17 17 17 20 21 26 31 34 31 30 29 26 25 24 19 14 12 10 9 9 8 7 5 5 6 5 6 9 11 12 14 17 18 18 13 14 15 16 17 17 17
13 15 17 18 22 26 24 26 30 33 35 30 25 23 23 21 17 14 11 11 8 8 8 7 6 6 7 8 8 10 12 13 14 16 15 13 13 14 15 16 17 17 18
Wind_Direction
158 206 213 209 198 194 191 190 182 180 176 176 174 173 174 172 169 164 165 166 162 160 158 156 151 149 151 147 142 129 129 125 145 144 152 161 168 183 200 188 170 138 94
166 186 209 214 206 200 193 194 193 184 183 180 181 177 175 181 173 169 163 168 167 167 167 163 162 156 148 155 163 155 142 124 164 242 189 173 184 196 200 201 194 188 166
171 147 242 220 211 207 201 200 196 189 183 178 171 166 168 166 173 174 167 169 172 173 167 165 168 163 147 149 161 168 175 145 121 138 303 178 233 150 179 203 209 212 233
158 198 194 268 222 223 212 204 197 192 188 179 175 175 173 177 186 177 175 170 178 176 173 170 173 165 152 149 163 145 159 148 147 105 68 62 26 295 171 192 213 224 254
181 194 216 211 247 218 221 215 202 194 192 186 186 182 180 178 167 171 176 166 171 181 175 175 180 162 153 165 163 138 134 129 136 116 113 61 44 17 321 305 174 201 273
197 199 203 236 255 232 214 207 207 200 195 189 193 188 180 172 166 169 171 171 174 183 180 182 180 161 165 165 158 141 130 122 117 108 90 54 5 17 333 307 306 323 303
203 203 200 214 228 216 212 204 206 202 198 195 196 193 185 178 177 173 171 170 172 177 181 177 173 155 169 168 148 136 129 117 119 110 95 76 63 28 339 313 300 306 300
217 196 203 202 215 211 204 206 204 204 199 198 194 192 188 180 180 175 171 174 175 176 177 171 165 167 167 162 148 139 128 124 112 105 112 95 67 24 325 304 310 297 278
227 241 236 230 228 219 214 211 209 209 198 198 190 183 182 184 180 178 173 174 165 174 172 173 174 164 162 164 145 133 129 131 125 134 79 83 306 298 287 277 271 276 292
223 238 246 242 245 232 218 212 209 203 202 200 194 190 179 183 180 179 175 174 172 174 172 167 165 159 156 158 156 154 151 141 146 149 114 292 289 283 277 270 270 270 275
223 237 236 253 250 235 214 211 205 202 196 193 192 186 173 174 184 184 180 165 165 166 165 166 152 151 149 155 150 156 149 148 163 288 297 286 285 288 279 278 275 275 275
257 235 252 239 250 243 226 218 200 197 192 185 180 177 173 174 175 170 171 163 158 161 160 150 145 147 152 151 155 158 163 158 231 270 286 281 281 284 286 282 280 282 281
282 274 207 220 229 228 227 212 204 187 179 173 168 167 171 161 169 162 166 157 154 151 148 148 147 151 158 152 161 163 175 215 252 261 266 275 284 286 286 287 288 287 286
281 268 275 230 198 214 214 207 192 177 168 164 162 158 159 156 159 159 150 155 148 143 141 144 147 154 151 155 165 171 185 245 261 264 274 276 275 280 288 289 288 290 290
284 260 248 238 217 184 188 189 161 168 171 160 152 150 152 158 160 153 143 150 138 140 146 146 149 146 147 150 165 206 233 249 263 272 277 279 276 274 282 281 286 291 293
286 267 241 221 202 196 177 167 168 165 156 147 139 142 151 145 146 144 143 140 135 145 142 142 149 153 149 178 193 197 236 266 272 274 278 281 285 287 290 286 283 282 285
294 246 229 226 208 177 177 167 157 148 139 136 138 140 142 141 143 145 141 138 141 140 141 148 150 155 177 185 208 244 262 265 271 275 283 292 292 291 291 291 291 289 285
318 287 244 212 203 185 164 152 149 145 141 142 146 147 146 145 145 141 140 140 141 143 148 154 159 166 182 205 243 263 278 273 273 280 283 285 289 292 296 297 294 293 291
319 308 269 217 194 182 177 164 159 157 152 153 154 154 152 146 144 141 139 139 142 149 156 161 165 167 194 231 253 270 271 276 278 279 283 286 289 293 297 303 302 300 296
297 298 253 202 191 188 176 173 170 164 162 161 158 155 151 146 143 140 141 145 150 153 159 164 179 195 202 244 256 274 278 279 288 291 291 290 287 292 296 300 300 297 298
281 233 200 204 197 186 179 178 172 172 165 157 152 149 148 143 143 146 144 149 153 157 164 172 191 211 218 233 262 265 273 289 298 296 297 296 294 297 299 300 302 299 302
221 204 208 196 199 183 181 176 171 164 154 150 148 147 148 148 151 141 147 151 161 164 169 177 195 222 222 244 252 261 281 287 289 294 298 301 301 301 300 302 300 302 306
223 203 198 195 186 184 185 169 163 157 152 146 142 143 150 154 153 145 154 161 166 167 174 183 194 203 221 243 258 272 288 289 288 296 300 304 305 304 302 301 302 303 302
215 207 199 197 187 187 185 170 157 156 148 141 138 144 148 147 148 142 167 164 170 175 180 186 193 207 232 245 258 274 294 295 296 296 303 307 303 299 298 299 301 303 301
206 194 192 193 192 186 181 165 159 154 147 141 141 144 142 144 144 158 167 171 175 182 182 185 193 219 241 250 274 293 297 298 297 302 306 302 299 306 306 308 310 311 313
209 203 205 190 181 176 171 163 161 155 146 139 142 144 140 143 151 161 170 173 183 196 198 205 217 235 257 278 288 295 296 295 296 299 298 301 305 305 309 311 313 309 306